Погода в Капшагае

Казахстан     43°51′18″N   77°03′44″E
темп.,
°C
ветер,
м/с
пор.,
м/с
влажн.,
%
обл.,
%
осадки,
мм/ч
давл.,
гПа
погр.,
м
18 мая, вт
вт1800:00+15ю11450 0.0 101611
03:00+13ю22490 0.0 101410
06:00+13всв22530 0.0 101511
09:00+21в811370 0.0 1014718
12:00+26в77260 0.0 10121272
15:00+28в44170 0.0 10111777
18:00+27вюв34180 0.0 10101517
21:00+19зюз11290 0.0 101011
19 мая, ср
ср1900:00+16в223810 0.0 101011
03:00+14с00455 0.0 100911
06:00+15ю124817 0.0 100911
09:00+23вюв11310 0.0 1008380
12:00+27в32240 0.0 10071215
15:00+29всв34190 0.0 10052047
18:00+21ю8134011 0.0 1006315
21:00+20ююз3342100 0.0 100625
20 мая, чт
чт2000:00+20з7154088 0.0 1006328
03:00+15ююз1155100 0.0 100815
06:00+16юз335811 0.4 100840
09:00+24зсз4535100 0.1 1008541
12:00+27ссз6631100 0.1 10091584
15:00+27с973116 0.0 10092452
18:00+22с8744100 0.0 10121270
21:00+17ссв4648100 0.1 1016112
21 мая, пт
пт2100:00+14с474220 0.1 1017159
03:00+11сз22460 0.0 101822
06:00+10сз33390 0.0 101946
09:00+17с34230 0.0 1019669
12:00+22с54180 0.0 10181505
15:00+24ссв54190 0.0 10171935
18:00+22ссв54220 0.0 10171777
21:00+16ссв59380 0.0 1019161
22 мая, сб
сб2200:00+12с34400 0.0 101959
03:00+11сз22430 0.0 101916
06:00+12зсз34400 0.0 101943
09:00+19с34320 0.0 1018720
12:00+24с44265 0.0 10161691
15:00+26ссв542424 0.0 10142135
18:00+24с5427100 0.0 10141697
21:00+18с494016 0.0 1016136